owner,sensor,date,latitude,longitude,vertical_datum,wind_speed,wind_to_direction,wind_speed_of_gust,qcFlag 
DISL,ioos:station:DISL:DISL:1,2019-04-01T00:40:00Z,30.2513,-88.0778,9.68,9.5,358.1,-9999.0,'1111122,1111122,1111122' 
DISL,ioos:station:DISL:DISL:1,2019-04-01T01:40:00Z,30.2513,-88.0778,9.68,8.88,4.0,-9999.0,'1111122,1111122,1111122' 
DISL,ioos:station:DISL:DISL:1,2019-04-01T02:40:00Z,30.2513,-88.0778,9.68,10.28,31.33,-9999.0,'1111122,1111122,1111122' 
DISL,ioos:station:DISL:DISL:1,2019-04-01T03:40:00Z,30.2513,-88.0778,9.68,9.01,38.79,-9999.0,'1111122,1111122,1111122' 
DISL,ioos:station:DISL:DISL:1,2019-04-01T05:10:00Z,30.2513,-88.0778,9.68,10.0,31.19,-9999.0,'1111122,1111122,1111122' 
DISL,ioos:station:DISL:DISL:1,2019-04-01T06:10:00Z,30.2513,-88.0778,9.68,10.65,34.82,-9999.0,'1111122,1111122,1111122' 
DISL,ioos:station:DISL:DISL:1,2019-04-01T07:10:00Z,30.2513,-88.0778,9.68,9.87,33.23,-9999.0,'1111122,1111122,1111122' 
DISL,ioos:station:DISL:DISL:1,2019-04-01T08:10:00Z,30.2513,-88.0778,9.68,9.63,51.76,-9999.0,'1111122,1111122,1111122' 
DISL,ioos:station:DISL:DISL:1,2019-04-01T09:10:00Z,30.2513,-88.0778,9.68,8.64,46.33,-9999.0,'1111122,1111122,1111122' 
DISL,ioos:station:DISL:DISL:1,2019-04-01T10:10:00Z,30.2513,-88.0778,9.68,8.53,32.29,-9999.0,'1111122,1111122,1111122' 
DISL,ioos:station:DISL:DISL:1,2019-04-01T11:10:00Z,30.2513,-88.0778,9.68,8.1,29.54,-9999.0,'1111122,1111122,1111122' 
DISL,ioos:station:DISL:DISL:1,2019-04-01T12:10:00Z,30.2513,-88.0778,9.68,8.57,43.17,-9999.0,'1111122,1111122,1111122' 
DISL,ioos:station:DISL:DISL:1,2019-04-01T13:10:00Z,30.2513,-88.0778,9.68,8.55,36.88,-9999.0,'1111122,1111122,1111122' 
DISL,ioos:station:DISL:DISL:1,2019-04-01T14:10:00Z,30.2513,-88.0778,9.68,7.11,43.73,-9999.0,'1111122,1111122,1111122' 
DISL,ioos:station:DISL:DISL:1,2019-04-01T15:10:00Z,30.2513,-88.0778,9.68,5.64,50.89,-9999.0,'1111122,1111122,1111122' 
DISL,ioos:station:DISL:DISL:1,2019-04-01T16:10:00Z,30.2513,-88.0778,9.68,3.8,51.04,-9999.0,'1111122,1111122,1111122' 
DISL,ioos:station:DISL:DISL:1,2019-04-01T17:10:00Z,30.2513,-88.0778,9.68,1.77,45.86,-9999.0,'1111122,1111122,1111122' 
DISL,ioos:station:DISL:DISL:1,2019-04-01T18:10:00Z,30.2513,-88.0778,9.68,1.73,11.8,-9999.0,'1111122,1111122,1111122' 
DISL,ioos:station:DISL:DISL:1,2019-04-01T19:10:00Z,30.2513,-88.0778,9.68,1.5,344.9,-9999.0,'1111122,1111122,1111122' 
DISL,ioos:station:DISL:DISL:1,2019-04-01T20:10:00Z,30.2513,-88.0778,9.68,2.66,107.6,-9999.0,'1111122,1111122,1111122' 
DISL,ioos:station:DISL:DISL:1,2019-04-01T21:10:00Z,30.2513,-88.0778,9.68,3.26,165.1,-9999.0,'1111122,1111122,1111122' 
DISL,ioos:station:DISL:DISL:1,2019-04-01T22:10:00Z,30.2513,-88.0778,9.68,3.62,162.6,-9999.0,'1111122,1111122,1111122' 
DISL,ioos:station:DISL:DISL:1,2019-04-01T23:10:00Z,30.2513,-88.0778,9.68,3.52,144.8,-9999.0,'1111122,1111122,1111122' 
DISL,ioos:station:DISL:DISL:1,2019-04-01T23:40:00Z,30.2513,-88.0778,9.68,2.3,156.7,-9999.0,'1111122,1111122,1111122' 
DISL,ioos:station:DISL:DISL:1,2019-04-02T00:40:00Z,30.2513,-88.0778,9.68,1.43,203.9,-9999.0,'1111122,1111122,1111122' 
DISL,ioos:station:DISL:DISL:1,2019-04-02T01:40:00Z,30.2513,-88.0778,9.68,1.33,173.5,-9999.0,'1111122,1111122,1111122' 
DISL,ioos:station:DISL:DISL:1,2019-04-02T02:40:00Z,30.2513,-88.0778,9.68,3.08,281.6,-9999.0,'1111122,1111122,1111122' 
DISL,ioos:station:DISL:DISL:1,2019-04-02T03:40:00Z,30.2513,-88.0778,9.68,5.19,300.8,-9999.0,'1111122,1111122,1111122' 
DISL,ioos:station:DISL:DISL:1,2019-04-02T05:10:00Z,30.2513,-88.0778,9.68,2.09,262.3,-9999.0,'1111122,1111122,1111122' 
DISL,ioos:station:DISL:DISL:1,2019-04-02T06:10:00Z,30.2513,-88.0778,9.68,1.87,305.1,-9999.0,'1111122,1111122,1111122' 
DISL,ioos:station:DISL:DISL:1,2019-04-02T07:10:00Z,30.2513,-88.0778,9.68,5.61,313.3,-9999.0,'1111122,1111122,1111122' 
DISL,ioos:station:DISL:DISL:1,2019-04-02T08:10:00Z,30.2513,-88.0778,9.68,6.4,309.5,-9999.0,'1111122,1111122,1111122' 
DISL,ioos:station:DISL:DISL:1,2019-04-02T09:10:00Z,30.2513,-88.0778,9.68,6.31,331.1,-9999.0,'1111122,1111122,1111122' 
DISL,ioos:station:DISL:DISL:1,2019-04-02T10:10:00Z,30.2513,-88.0778,9.68,7.68,346.8,-9999.0,'1111122,1111122,1111122' 
DISL,ioos:station:DISL:DISL:1,2019-04-02T11:10:00Z,30.2513,-88.0778,9.68,6.91,341.8,-9999.0,'1111122,1111122,1111122' 
DISL,ioos:station:DISL:DISL:1,2019-04-02T12:10:00Z,30.2513,-88.0778,9.68,5.42,344.6,-9999.0,'1111122,1111122,1111122' 
DISL,ioos:station:DISL:DISL:1,2019-04-02T13:10:00Z,30.2513,-88.0778,9.68,5.6,347.9,-9999.0,'1111122,1111122,1111122' 
DISL,ioos:station:DISL:DISL:1,2019-04-02T14:10:00Z,30.2513,-88.0778,9.68,5.71,358.2,-9999.0,'1111122,1111122,1111122' 
DISL,ioos:station:DISL:DISL:1,2019-04-02T15:10:00Z,30.2513,-88.0778,9.68,5.28,357.5,-9999.0,'1111122,1111122,1111122' 
DISL,ioos:station:DISL:DISL:1,2019-04-02T16:10:00Z,30.2513,-88.0778,9.68,5.3,30.52,-9999.0,'1111122,1111122,1111122' 
DISL,ioos:station:DISL:DISL:1,2019-04-02T17:10:00Z,30.2513,-88.0778,9.68,2.73,15.91,-9999.0,'1111122,1111122,1111122' 
DISL,ioos:station:DISL:DISL:1,2019-04-02T18:10:00Z,30.2513,-88.0778,9.68,1.16,358.0,-9999.0,'1111122,1111122,1111122' 
DISL,ioos:station:DISL:DISL:1,2019-04-02T19:10:00Z,30.2513,-88.0778,9.68,2.08,139.6,-9999.0,'1111122,1111122,1111122' 
DISL,ioos:station:DISL:DISL:1,2019-04-02T20:10:00Z,30.2513,-88.0778,9.68,2.34,171.3,-9999.0,'1111122,1111122,1111122' 
DISL,ioos:station:DISL:DISL:1,2019-04-02T21:10:00Z,30.2513,-88.0778,9.68,1.99,203.6,-9999.0,'1111122,1111122,1111122' 
DISL,ioos:station:DISL:DISL:1,2019-04-02T22:10:00Z,30.2513,-88.0778,9.68,2.8,220.2,-9999.0,'1111122,1111122,1111122' 
DISL,ioos:station:DISL:DISL:1,2019-04-02T23:10:00Z,30.2513,-88.0778,9.68,1.87,216.1,-9999.0,'1111122,1111122,1111122' 
DISL,ioos:station:DISL:DISL:1,2019-04-02T23:40:00Z,30.2513,-88.0778,9.68,2.25,231.4,-9999.0,'1111122,1111122,1111122' 
DISL,ioos:station:DISL:DISL:1,2019-04-03T00:40:00Z,30.2513,-88.0778,9.68,1.74,231.9,-9999.0,'1111122,1111122,1111122' 
DISL,ioos:station:DISL:DISL:1,2019-04-03T01:40:00Z,30.2513,-88.0778,9.68,2.21,257.2,-9999.0,'1111122,1111122,1111122' 
DISL,ioos:station:DISL:DISL:1,2019-04-03T02:40:00Z,30.2513,-88.0778,9.68,2.35,268.8,-9999.0,'1111122,1111122,1111122' 
DISL,ioos:station:DISL:DISL:1,2019-04-03T03:40:00Z,30.2513,-88.0778,9.68,1.82,284.8,-9999.0,'1111122,1111122,1111122' 
DISL,ioos:station:DISL:DISL:1,2019-04-03T05:10:00Z,30.2513,-88.0778,9.68,1.69,290.4,-9999.0,'1111122,1111122,1111122' 
DISL,ioos:station:DISL:DISL:1,2019-04-03T05:40:00Z,30.2513,-88.0778,9.68,1.35,295.5,-9999.0,'1111122,1111122,1111122' 
DISL,ioos:station:DISL:DISL:1,2019-04-03T06:40:00Z,30.2513,-88.0778,9.68,2.45,31.85,-9999.0,'1111122,1111122,1111122' 
DISL,ioos:station:DISL:DISL:1,2019-04-03T07:40:00Z,30.2513,-88.0778,9.68,4.13,66.73,-9999.0,'1111122,1111122,1111122' 
DISL,ioos:station:DISL:DISL:1,2019-04-03T09:10:00Z,30.2513,-88.0778,9.68,5.78,72.42,-9999.0,'1111122,1111122,1111122' 
DISL,ioos:station:DISL:DISL:1,2019-04-03T10:10:00Z,30.2513,-88.0778,9.68,6.17,68.89,-9999.0,'1111122,1111122,1111122' 
DISL,ioos:station:DISL:DISL:1,2019-04-03T11:10:00Z,30.2513,-88.0778,9.68,5.85,63.23,-9999.0,'1111122,1111122,1111122' 
DISL,ioos:station:DISL:DISL:1,2019-04-03T12:10:00Z,30.2513,-88.0778,9.68,5.66,59.1,-9999.0,'1111122,1111122,1111122' 
DISL,ioos:station:DISL:DISL:1,2019-04-03T13:10:00Z,30.2513,-88.0778,9.68,7.3,69.93,-9999.0,'1111122,1111122,1111122' 
DISL,ioos:station:DISL:DISL:1,2019-04-03T14:10:00Z,30.2513,-88.0778,9.68,5.85,82.8,-9999.0,'1111122,1111122,1111122' 
DISL,ioos:station:DISL:DISL:1,2019-04-03T15:10:00Z,30.2513,-88.0778,9.68,4.92,81.8,-9999.0,'1111122,1111122,1111122' 
DISL,ioos:station:DISL:DISL:1,2019-04-03T16:10:00Z,30.2513,-88.0778,9.68,3.21,71.46,-9999.0,'1111122,1111122,1111122' 
DISL,ioos:station:DISL:DISL:1,2019-04-03T17:10:00Z,30.2513,-88.0778,9.68,4.7,103.5,-9999.0,'1111122,1111122,1111122' 
DISL,ioos:station:DISL:DISL:1,2019-04-03T18:10:00Z,30.2513,-88.0778,9.68,4.98,121.9,-9999.0,'1111122,1111122,1111122' 
DISL,ioos:station:DISL:DISL:1,2019-04-03T19:10:00Z,30.2513,-88.0778,9.68,5.69,116.7,-9999.0,'1111122,1111122,1111122' 
DISL,ioos:station:DISL:DISL:1,2019-04-03T20:10:00Z,30.2513,-88.0778,9.68,6.23,110.5,-9999.0,'1111122,1111122,1111122' 
DISL,ioos:station:DISL:DISL:1,2019-04-03T21:10:00Z,30.2513,-88.0778,9.68,5.95,120.0,-9999.0,'1111122,1111122,1111122' 
DISL,ioos:station:DISL:DISL:1,2019-04-03T22:10:00Z,30.2513,-88.0778,9.68,6.14,119.7,-9999.0,'1111122,1111122,1111122' 
DISL,ioos:station:DISL:DISL:1,2019-04-03T23:10:00Z,30.2513,-88.0778,9.68,4.91,126.1,-9999.0,'1111122,1111122,1111122' 
DISL,ioos:station:DISL:DISL:1,2019-04-03T23:40:00Z,30.2513,-88.0778,9.68,5.96,125.4,-9999.0,'1111122,1111122,1111122' 
DISL,ioos:station:DISL:DISL:1,2019-04-04T00:40:00Z,30.2513,-88.0778,9.68,4.36,136.0,-9999.0,'1111122,1111122,1111122' 
DISL,ioos:station:DISL:DISL:1,2019-04-04T01:40:00Z,30.2513,-88.0778,9.68,4.65,139.0,-9999.0,'1111122,1111122,1111122' 
DISL,ioos:station:DISL:DISL:1,2019-04-04T02:40:00Z,30.2513,-88.0778,9.68,3.64,149.5,-9999.0,'1111122,1111122,1111122' 
DISL,ioos:station:DISL:DISL:1,2019-04-04T03:40:00Z,30.2513,-88.0778,9.68,4.47,147.7,-9999.0,'1111122,1111122,1111122' 
DISL,ioos:station:DISL:DISL:1,2019-04-04T04:40:00Z,30.2513,-88.0778,9.68,4.48,145.7,-9999.0,'1111122,1111122,1111122' 
DISL,ioos:station:DISL:DISL:1,2019-04-04T05:40:00Z,30.2513,-88.0778,9.68,4.48,135.1,-9999.0,'1111122,1111122,1111122' 
DISL,ioos:station:DISL:DISL:1,2019-04-04T06:40:00Z,30.2513,-88.0778,9.68,2.84,143.9,-9999.0,'1111122,1111122,1111122' 
DISL,ioos:station:DISL:DISL:1,2019-04-04T07:40:00Z,30.2513,-88.0778,9.68,3.01,125.1,-9999.0,'1111122,1111122,1111122' 
DISL,ioos:station:DISL:DISL:1,2019-04-04T08:40:00Z,30.2513,-88.0778,9.68,2.78,140.8,-9999.0,'1111122,1111122,1111122' 
DISL,ioos:station:DISL:DISL:1,2019-04-04T09:40:00Z,30.2513,-88.0778,9.68,3.53,126.0,-9999.0,'1111122,1111122,1111122' 
DISL,ioos:station:DISL:DISL:1,2019-04-04T10:40:00Z,30.2513,-88.0778,9.68,3.47,126.4,-9999.0,'1111122,1111122,1111122' 
DISL,ioos:station:DISL:DISL:1,2019-04-04T11:40:00Z,30.2513,-88.0778,9.68,5.73,89.5,-9999.0,'1111122,1111122,1111122' 
DISL,ioos:station:DISL:DISL:1,2019-04-04T12:40:00Z,30.2513,-88.0778,9.68,8.08,117.7,-9999.0,'1111122,1111122,1111122' 
DISL,ioos:station:DISL:DISL:1,2019-04-04T14:10:00Z,30.2513,-88.0778,9.68,6.91,121.9,-9999.0,'1111122,1111122,1111122' 
DISL,ioos:station:DISL:DISL:1,2019-04-04T15:10:00Z,30.2513,-88.0778,9.68,5.37,119.0,-9999.0,'1111122,1111122,1111122' 
DISL,ioos:station:DISL:DISL:1,2019-04-04T15:40:00Z,30.2513,-88.0778,9.68,2.96,219.8,-9999.0,'1111122,1111122,1111122' 
DISL,ioos:station:DISL:DISL:1,2019-04-04T17:10:00Z,30.2513,-88.0778,9.68,4.51,36.91,-9999.0,'1111122,1111122,1111122' 
DISL,ioos:station:DISL:DISL:1,2019-04-04T18:10:00Z,30.2513,-88.0778,9.68,3.54,34.52,-9999.0,'1111122,1111122,1111122' 
DISL,ioos:station:DISL:DISL:1,2019-04-04T19:10:00Z,30.2513,-88.0778,9.68,2.13,348.7,-9999.0,'1111122,1111122,1111122' 
DISL,ioos:station:DISL:DISL:1,2019-04-04T20:10:00Z,30.2513,-88.0778,9.68,7.43,5.99,-9999.0,'1111122,1111122,1111122' 
DISL,ioos:station:DISL:DISL:1,2019-04-04T21:10:00Z,30.2513,-88.0778,9.68,4.31,356.8,-9999.0,'1111122,1111122,1111122' 
DISL,ioos:station:DISL:DISL:1,2019-04-04T22:10:00Z,30.2513,-88.0778,9.68,5.03,30.06,-9999.0,'1111122,1111122,1111122' 
DISL,ioos:station:DISL:DISL:1,2019-04-04T23:10:00Z,30.2513,-88.0778,9.68,7.7,97.0,-9999.0,'1111122,1111122,1111122' 
DISL,ioos:station:DISL:DISL:1,2019-04-04T23:40:00Z,30.2513,-88.0778,9.68,7.96,103.4,-9999.0,'1111122,1111122,1111122' 
DISL,ioos:station:DISL:DISL:1,2019-04-05T00:40:00Z,30.2513,-88.0778,9.68,9.91,111.1,-9999.0,'1111122,1111122,1111122' 
DISL,ioos:station:DISL:DISL:1,2019-04-05T01:40:00Z,30.2513,-88.0778,9.68,6.07,84.4,-9999.0,'1111122,1111122,1111122' 
DISL,ioos:station:DISL:DISL:1,2019-04-05T02:40:00Z,30.2513,-88.0778,9.68,2.14,63.81,-9999.0,'1111122,1111122,1111122' 
DISL,ioos:station:DISL:DISL:1,2019-04-05T03:40:00Z,30.2513,-88.0778,9.68,5.74,49.05,-9999.0,'1111122,1111122,1111122' 
DISL,ioos:station:DISL:DISL:1,2019-04-05T04:40:00Z,30.2513,-88.0778,9.68,5.77,107.6,-9999.0,'1111122,1111122,1111122' 
DISL,ioos:station:DISL:DISL:1,2019-04-05T05:40:00Z,30.2513,-88.0778,9.68,6.14,99.2,-9999.0,'1111122,1111122,1111122' 
DISL,ioos:station:DISL:DISL:1,2019-04-05T06:40:00Z,30.2513,-88.0778,9.68,4.9,127.9,-9999.0,'1111122,1111122,1111122' 
DISL,ioos:station:DISL:DISL:1,2019-04-05T07:40:00Z,30.2513,-88.0778,9.68,3.78,150.4,-9999.0,'1111122,1111122,1111122' 
DISL,ioos:station:DISL:DISL:1,2019-04-05T08:40:00Z,30.2513,-88.0778,9.68,3.41,159.3,-9999.0,'1111122,1111122,1111122' 
DISL,ioos:station:DISL:DISL:1,2019-04-05T09:40:00Z,30.2513,-88.0778,9.68,2.14,175.5,-9999.0,'1111122,1111122,1111122' 
DISL,ioos:station:DISL:DISL:1,2019-04-05T10:40:00Z,30.2513,-88.0778,9.68,3.71,138.8,-9999.0,'1111122,1111122,1111122' 
DISL,ioos:station:DISL:DISL:1,2019-04-05T11:40:00Z,30.2513,-88.0778,9.68,3.61,128.3,-9999.0,'1111122,1111122,1111122' 
DISL,ioos:station:DISL:DISL:1,2019-04-05T12:40:00Z,30.2513,-88.0778,9.68,3.09,116.8,-9999.0,'1111122,1111122,1111122' 
DISL,ioos:station:DISL:DISL:1,2019-04-05T14:10:00Z,30.2513,-88.0778,9.68,2.35,102.5,-9999.0,'1111122,1111122,1111122' 
DISL,ioos:station:DISL:DISL:1,2019-04-05T15:10:00Z,30.2513,-88.0778,9.68,0.35,305.4,-9999.0,'1111122,1111122,1111122' 
DISL,ioos:station:DISL:DISL:1,2019-04-05T16:10:00Z,30.2513,-88.0778,9.68,0.98,109.6,-9999.0,'1111122,1111122,1111122' 
DISL,ioos:station:DISL:DISL:1,2019-04-05T17:10:00Z,30.2513,-88.0778,9.68,2.95,43.99,-9999.0,'1111122,1111122,1111122' 
DISL,ioos:station:DISL:DISL:1,2019-04-05T18:10:00Z,30.2513,-88.0778,9.68,2.77,74.02,-9999.0,'1111122,1111122,1111122' 
DISL,ioos:station:DISL:DISL:1,2019-04-05T19:10:00Z,30.2513,-88.0778,9.68,1.8,339.6,-9999.0,'1111122,1111122,1111122' 
DISL,ioos:station:DISL:DISL:1,2019-04-05T20:10:00Z,30.2513,-88.0778,9.68,2.76,75.01,-9999.0,'1111122,1111122,1111122' 
DISL,ioos:station:DISL:DISL:1,2019-04-05T21:10:00Z,30.2513,-88.0778,9.68,4.58,95.5,-9999.0,'1111122,1111122,1111122' 
DISL,ioos:station:DISL:DISL:1,2019-04-05T22:10:00Z,30.2513,-88.0778,9.68,3.22,107.4,-9999.0,'1111122,1111122,1111122' 
DISL,ioos:station:DISL:DISL:1,2019-04-05T23:10:00Z,30.2513,-88.0778,9.68,4.28,114.6,-9999.0,'1111122,1111122,1111122' 
DISL,ioos:station:DISL:DISL:1,2019-04-05T23:40:00Z,30.2513,-88.0778,9.68,5.23,112.9,-9999.0,'1111122,1111122,1111122' 
DISL,ioos:station:DISL:DISL:1,2019-04-06T00:40:00Z,30.2513,-88.0778,9.68,3.65,111.7,-9999.0,'1111122,1111122,1111122' 
DISL,ioos:station:DISL:DISL:1,2019-04-06T01:40:00Z,30.2513,-88.0778,9.68,2.55,132.7,-9999.0,'1111122,1111122,1111122' 
DISL,ioos:station:DISL:DISL:1,2019-04-06T02:40:00Z,30.2513,-88.0778,9.68,3.91,143.6,-9999.0,'1111122,1111122,1111122' 
DISL,ioos:station:DISL:DISL:1,2019-04-06T03:40:00Z,30.2513,-88.0778,9.68,4.35,162.1,-9999.0,'1111122,1111122,1111122' 
DISL,ioos:station:DISL:DISL:1,2019-04-06T04:40:00Z,30.2513,-88.0778,9.68,3.31,163.6,-9999.0,'1111122,1111122,1111122' 
DISL,ioos:station:DISL:DISL:1,2019-04-06T05:40:00Z,30.2513,-88.0778,9.68,3.27,159.2,-9999.0,'1111122,1111122,1111122' 
DISL,ioos:station:DISL:DISL:1,2019-04-06T06:40:00Z,30.2513,-88.0778,9.68,1.17,183.7,-9999.0,'1111122,1111122,1111122' 
DISL,ioos:station:DISL:DISL:1,2019-04-06T07:40:00Z,30.2513,-88.0778,9.68,0.61,203.0,-9999.0,'1111122,1111122,1111122' 
DISL,ioos:station:DISL:DISL:1,2019-04-06T08:40:00Z,30.2513,-88.0778,9.68,0.66,191.0,-9999.0,'1111122,1111122,1111122' 
DISL,ioos:station:DISL:DISL:1,2019-04-06T09:40:00Z,30.2513,-88.0778,9.68,0.82,167.6,-9999.0,'1111122,1111122,1111122' 
DISL,ioos:station:DISL:DISL:1,2019-04-06T10:40:00Z,30.2513,-88.0778,9.68,1.38,126.4,-9999.0,'1111122,1111122,1111122' 
DISL,ioos:station:DISL:DISL:1,2019-04-06T11:40:00Z,30.2513,-88.0778,9.68,1.68,118.7,-9999.0,'1111122,1111122,1111122' 
DISL,ioos:station:DISL:DISL:1,2019-04-06T12:40:00Z,30.2513,-88.0778,9.68,2.9,120.7,-9999.0,'1111122,1111122,1111122' 
DISL,ioos:station:DISL:DISL:1,2019-04-06T13:40:00Z,30.2513,-88.0778,9.68,3.61,118.0,-9999.0,'1111122,1111122,1111122' 
DISL,ioos:station:DISL:DISL:1,2019-04-06T14:40:00Z,30.2513,-88.0778,9.68,3.66,126.8,-9999.0,'1111122,1111122,1111122' 
DISL,ioos:station:DISL:DISL:1,2019-04-06T15:40:00Z,30.2513,-88.0778,9.68,3.92,120.3,-9999.0,'1111122,1111122,1111122' 
DISL,ioos:station:DISL:DISL:1,2019-04-06T17:10:00Z,30.2513,-88.0778,9.68,3.0,124.2,-9999.0,'1111122,1111122,1111122' 
DISL,ioos:station:DISL:DISL:1,2019-04-06T17:40:00Z,30.2513,-88.0778,9.68,3.27,125.8,-9999.0,'1111122,1111122,1111122' 
DISL,ioos:station:DISL:DISL:1,2019-04-06T19:10:00Z,30.2513,-88.0778,9.68,3.7,135.3,-9999.0,'1111122,1111122,1111122' 
DISL,ioos:station:DISL:DISL:1,2019-04-06T20:10:00Z,30.2513,-88.0778,9.68,3.06,131.0,-9999.0,'1111122,1111122,1111122' 
DISL,ioos:station:DISL:DISL:1,2019-04-06T21:10:00Z,30.2513,-88.0778,9.68,3.47,130.7,-9999.0,'1111122,1111122,1111122' 
DISL,ioos:station:DISL:DISL:1,2019-04-06T22:10:00Z,30.2513,-88.0778,9.68,3.14,129.0,-9999.0,'1111122,1111122,1111122' 
DISL,ioos:station:DISL:DISL:1,2019-04-06T23:10:00Z,30.2513,-88.0778,9.68,3.94,132.5,-9999.0,'1111122,1111122,1111122' 
DISL,ioos:station:DISL:DISL:1,2019-04-06T23:40:00Z,30.2513,-88.0778,9.68,3.76,127.7,-9999.0,'1111122,1111122,1111122' 
DISL,ioos:station:DISL:DISL:1,2019-04-07T00:40:00Z,30.2513,-88.0778,9.68,3.07,121.5,-9999.0,'1111122,1111122,1111122' 
DISL,ioos:station:DISL:DISL:1,2019-04-07T01:40:00Z,30.2513,-88.0778,9.68,2.88,127.9,-9999.0,'1111122,1111122,1111122' 
DISL,ioos:station:DISL:DISL:1,2019-04-07T02:40:00Z,30.2513,-88.0778,9.68,3.42,133.3,-9999.0,'1111122,1111122,1111122' 
DISL,ioos:station:DISL:DISL:1,2019-04-07T03:40:00Z,30.2513,-88.0778,9.68,3.96,128.0,-9999.0,'1111122,1111122,1111122' 
DISL,ioos:station:DISL:DISL:1,2019-04-07T04:40:00Z,30.2513,-88.0778,9.68,4.43,127.4,-9999.0,'1111122,1111122,1111122' 
DISL,ioos:station:DISL:DISL:1,2019-04-07T05:40:00Z,30.2513,-88.0778,9.68,3.83,141.2,-9999.0,'1111122,1111122,1111122' 
DISL,ioos:station:DISL:DISL:1,2019-04-07T06:40:00Z,30.2513,-88.0778,9.68,2.65,131.1,-9999.0,'1111122,1111122,1111122' 
DISL,ioos:station:DISL:DISL:1,2019-04-07T07:40:00Z,30.2513,-88.0778,9.68,3.19,142.6,-9999.0,'1111122,1111122,1111122' 
DISL,ioos:station:DISL:DISL:1,2019-04-07T08:40:00Z,30.2513,-88.0778,9.68,4.0,104.2,-9999.0,'1111122,1111122,1111122' 
DISL,ioos:station:DISL:DISL:1,2019-04-07T09:40:00Z,30.2513,-88.0778,9.68,4.86,92.8,-9999.0,'1111122,1111122,1111122' 
DISL,ioos:station:DISL:DISL:1,2019-04-07T11:10:00Z,30.2513,-88.0778,9.68,5.08,94.8,-9999.0,'1111122,1111122,1111122' 
DISL,ioos:station:DISL:DISL:1,2019-04-07T11:40:00Z,30.2513,-88.0778,9.68,6.07,101.5,-9999.0,'1111122,1111122,1111122' 
DISL,ioos:station:DISL:DISL:1,2019-04-07T12:40:00Z,30.2513,-88.0778,9.68,6.54,104.2,-9999.0,'1111122,1111122,1111122' 
DISL,ioos:station:DISL:DISL:1,2019-04-07T13:40:00Z,30.2513,-88.0778,9.68,6.86,113.7,-9999.0,'1111122,1111122,1111122' 
DISL,ioos:station:DISL:DISL:1,2019-04-07T14:40:00Z,30.2513,-88.0778,9.68,6.75,106.8,-9999.0,'1111122,1111122,1111122' 
DISL,ioos:station:DISL:DISL:1,2019-04-07T15:40:00Z,30.2513,-88.0778,9.68,8.07,108.7,-9999.0,'1111122,1111122,1111122' 
DISL,ioos:station:DISL:DISL:1,2019-04-07T16:40:00Z,30.2513,-88.0778,9.68,10.48,107.9,-9999.0,'1111122,1111122,1111122' 
DISL,ioos:station:DISL:DISL:1,2019-04-07T17:40:00Z,30.2513,-88.0778,9.68,9.2,105.1,-9999.0,'1111122,1111122,1111122' 
DISL,ioos:station:DISL:DISL:1,2019-04-07T18:40:00Z,30.2513,-88.0778,9.68,8.64,100.8,-9999.0,'1111122,1111122,1111122' 
DISL,ioos:station:DISL:DISL:1,2019-04-07T20:10:00Z,30.2513,-88.0778,9.68,7.43,102.4,-9999.0,'1111122,1111122,1111122' 
DISL,ioos:station:DISL:DISL:1,2019-04-07T21:10:00Z,30.2513,-88.0778,9.68,7.9,101.5,-9999.0,'1111122,1111122,1111122' 
DISL,ioos:station:DISL:DISL:1,2019-04-07T21:40:00Z,30.2513,-88.0778,9.68,7.79,104.3,-9999.0,'1111122,1111122,1111122' 
DISL,ioos:station:DISL:DISL:1,2019-04-07T23:10:00Z,30.2513,-88.0778,9.68,7.51,110.0,-9999.0,'1111122,1111122,1111122' 
DISL,ioos:station:DISL:DISL:1,2019-04-07T23:40:00Z,30.2513,-88.0778,9.68,7.33,106.8,-9999.0,'1111122,1111122,1111122' 
DISL,ioos:station:DISL:DISL:1,2019-04-08T00:40:00Z,30.2513,-88.0778,9.68,7.2,106.8,-9999.0,'1111122,1111122,1111122' 
DISL,ioos:station:DISL:DISL:1,2019-04-08T01:40:00Z,30.2513,-88.0778,9.68,7.7,115.9,-9999.0,'1111122,1111122,1111122' 
DISL,ioos:station:DISL:DISL:1,2019-04-08T02:40:00Z,30.2513,-88.0778,9.68,7.18,115.1,-9999.0,'1111122,1111122,1111122' 
DISL,ioos:station:DISL:DISL:1,2019-04-08T03:40:00Z,30.2513,-88.0778,9.68,5.8,120.3,-9999.0,'1111122,1111122,1111122' 
DISL,ioos:station:DISL:DISL:1,2019-04-08T04:40:00Z,30.2513,-88.0778,9.68,5.08,125.3,-9999.0,'1111122,1111122,1111122' 
DISL,ioos:station:DISL:DISL:1,2019-04-08T05:40:00Z,30.2513,-88.0778,9.68,3.93,274.9,-9999.0,'1111122,1111122,1111122' 
DISL,ioos:station:DISL:DISL:1,2019-04-08T06:40:00Z,30.2513,-88.0778,9.68,2.58,144.3,-9999.0,'1111122,1111122,1111122' 
DISL,ioos:station:DISL:DISL:1,2019-04-08T07:40:00Z,30.2513,-88.0778,9.68,4.6,135.4,-9999.0,'1111122,1111122,1111122' 
DISL,ioos:station:DISL:DISL:1,2019-04-08T08:40:00Z,30.2513,-88.0778,9.68,2.77,139.5,-9999.0,'1111122,1111122,1111122' 
DISL,ioos:station:DISL:DISL:1,2019-04-08T09:40:00Z,30.2513,-88.0778,9.68,3.97,139.3,-9999.0,'1111122,1111122,1111122' 
DISL,ioos:station:DISL:DISL:1,2019-04-08T10:40:00Z,30.2513,-88.0778,9.68,5.41,133.0,-9999.0,'1111122,1111122,1111122' 
DISL,ioos:station:DISL:DISL:1,2019-04-08T11:40:00Z,30.2513,-88.0778,9.68,6.91,147.7,-9999.0,'1111122,1111122,1111122' 
DISL,ioos:station:DISL:DISL:1,2019-04-08T12:40:00Z,30.2513,-88.0778,9.68,5.09,198.2,-9999.0,'1111122,1111122,1111122' 
DISL,ioos:station:DISL:DISL:1,2019-04-08T13:40:00Z,30.2513,-88.0778,9.68,6.75,163.8,-9999.0,'1111122,1111122,1111122' 
DISL,ioos:station:DISL:DISL:1,2019-04-08T14:40:00Z,30.2513,-88.0778,9.68,3.55,171.6,-9999.0,'1111122,1111122,1111122' 
DISL,ioos:station:DISL:DISL:1,2019-04-08T15:40:00Z,30.2513,-88.0778,9.68,3.97,143.3,-9999.0,'1111122,1111122,1111122' 
DISL,ioos:station:DISL:DISL:1,2019-04-08T16:40:00Z,30.2513,-88.0778,9.68,4.12,95.6,-9999.0,'1111122,1111122,1111122' 
DISL,ioos:station:DISL:DISL:1,2019-04-08T18:10:00Z,30.2513,-88.0778,9.68,4.43,124.7,-9999.0,'1111122,1111122,1111122' 
DISL,ioos:station:DISL:DISL:1,2019-04-08T19:00:00Z,30.2513,-88.0778,9.68,5.36,143.1,-9999.0,'1111122,1111122,1111122' 
DISL,ioos:station:DISL:DISL:1,2019-04-08T20:00:00Z,30.2513,-88.0778,9.68,6.18,146.0,-9999.0,'1111122,1111122,1111122' 
DISL,ioos:station:DISL:DISL:1,2019-04-08T21:00:00Z,30.2513,-88.0778,9.68,5.49,143.6,-9999.0,'1111122,1111122,1111122' 
DISL,ioos:station:DISL:DISL:1,2019-04-08T22:00:00Z,30.2513,-88.0778,9.68,6.24,133.0,-9999.0,'1111122,1111122,1111122' 
DISL,ioos:station:DISL:DISL:1,2019-04-08T23:00:00Z,30.2513,-88.0778,9.68,6.33,144.8,-9999.0,'1111122,1111122,1111122' 
DISL,ioos:station:DISL:DISL:1,2019-04-08T23:30:00Z,30.2513,-88.0778,9.68,5.21,146.0,-9999.0,'1111122,1111122,1111122' 
DISL,ioos:station:DISL:DISL:1,2019-04-09T01:00:00Z,30.2513,-88.0778,9.68,2.83,197.5,-9999.0,'1111122,1111122,1111122' 
DISL,ioos:station:DISL:DISL:1,2019-04-09T01:30:00Z,30.2513,-88.0778,9.68,1.87,214.0,-9999.0,'1111122,1111122,1111122' 
DISL,ioos:station:DISL:DISL:1,2019-04-09T02:30:00Z,30.2513,-88.0778,9.68,2.55,206.9,-9999.0,'1111122,1111122,1111122' 
DISL,ioos:station:DISL:DISL:1,2019-04-09T03:40:00Z,30.2513,-88.0778,9.68,2.7,165.7,-9999.0,'1111122,1111122,1111122' 
DISL,ioos:station:DISL:DISL:1,2019-04-09T05:10:00Z,30.2513,-88.0778,9.68,3.4,216.0,-9999.0,'1111122,1111122,1111122' 
DISL,ioos:station:DISL:DISL:1,2019-04-09T05:40:00Z,30.2513,-88.0778,9.68,3.33,217.7,-9999.0,'1111122,1111122,1111122' 
DISL,ioos:station:DISL:DISL:1,2019-04-09T06:40:00Z,30.2513,-88.0778,9.68,2.42,190.9,-9999.0,'1111122,1111122,1111122' 
DISL,ioos:station:DISL:DISL:1,2019-04-09T07:40:00Z,30.2513,-88.0778,9.68,2.55,205.0,-9999.0,'1111122,1111122,1111122' 
DISL,ioos:station:DISL:DISL:1,2019-04-09T08:40:00Z,30.2513,-88.0778,9.68,2.16,233.5,-9999.0,'1111122,1111122,1111122' 